Location: Unspecified
(45.3712°N, 0.6436°E)
Time: 02:25:49
(UTC+02:00)

ISS - Pass Details

Date: 18 July 2018
Orbit: 402 x 408 km, 51.6° (Epoch: 17 July)

Event Time Altitude Azimuth Distance (km) Brightness Sun altitude
Rises 05:33:08 0° 299° (WNW) 2,333 -0.2 -8.3°
Reaches altitude 10° 05:35:13 10° 299° (WNW) 1,471 -1.2 -8.1°
Maximum altitude 05:38:31 88° 23° (NNE) 412 -3.8 -7.6°
Drops below altitude 10° 05:41:49 10° 119° (ESE) 1,465 -0.7 -7.2°
Sets 05:43:53 0° 120° (ESE) 2,323 0.3 -6.9°
